Regional Weather Roundup
Issued by NWS

Home | Current Version | Previous Version | Graphics & Text | Print | Product List | Glossary On
Versions: 1 2 3 4 5 6 7 8 9 10 11 12 13 14 15 16 17 18 19 20 21 22 23 24 25 26 27 28 29 30 31 32 33 34 35 36 37 38 39 40 41 42 43 44 45 46 47 48 49 50
551
ASUS43 KTOP 291308
RWRKS

WEATHER ROUNDUP FOR KANSAS
NATIONAL WEATHER SERVICE GOODLAND KS
800 AM CDT WED MAR 29 2017

NOTE:  "FAIR" INDICATES FEW OR NO CLOUDS BELOW 12,000 FEET WITH NO
SIGNIFICANT WEATHER AND/OR OBSTRUCTIONS TO VISIBILITY.

KSZ001>006-013>018-027>032-041>047-291400-
NORTHWEST KANSAS

CITY           SKY/WX    TMP DP  RH WIND       PRES   REMARKS
GOODLAND       CLOUDY    39  39 100 N17G28    29.96R WCI  30
HAYS             N/A     45  43  93 N25G32    29.83F FOG
HILL CITY      LGT RAIN  44  43  96 NE21G29   29.92F FOG
RUSSELL        LGT RAIN  46  45  96 N22       29.81F FOG
$$

KSZ061>065-074>080-084>089-291400-
SOUTHWEST KANSAS

CITY           SKY/WX    TMP DP  RH WIND       PRES   REMARKS
DODGE CITY     LGT RAIN  43  42  97 N24G35    29.77F FOG
ELKHART          N/A     39  31  73 N16         N/A  WCI  30
GARDEN CITY    LGT RAIN  41  40  96 N25G36    29.83S
GREAT BEND     LGT RAIN  47  45  93 N23G30    29.75F
LIBERAL        CLOUDY    43  37  81 N23G30    29.82R
PRATT          DRIZZLE   44  43  98 N17G24    29.71R
$$

KSZ066>073-081>083-090>101-291400-
SOUTHEAST KANSAS

CITY           SKY/WX    TMP DP  RH WIND       PRES   REMARKS
CHANUTE        LGT RAIN  56  53  90 E15G30    29.67F
COFFEYVILLE    LGT RAIN  59  56  89 SE18      29.65R
MEDICINE LODGE   N/A     48  47  96 N17       29.65F
NEWTON         LGT RAIN  49  48  97 NE16G23   29.67F
PARSONS        LGT RAIN  57  54  89 E13G25    29.66F
WICHITA INTL   LGT RAIN  51  51 100 NE21      29.61F
WICHITA JABRA  LGT RAIN  51  51 100 NE17G25   29.64F
WICHITA MCCONL LGT RAIN  52  50  95 E20       29.61F
WINFIELD       LGT RAIN  55  54  96 E25G39    29.52F
$$

KSZ007>012-019>026-033>040-048>060-102>105-291400-
NORTHEAST KANSAS

CITY           SKY/WX    TMP DP  RH WIND       PRES   REMARKS
CONCORDIA      LGT RAIN  46  46 100 NE17      29.87F
EMPORIA        LGT RAIN  50  50 100 E20G28    29.71F FOG
LAWRENCE       CLOUDY    50  49  96 NE17G25   29.82F
MANHATTAN      LGT RAIN  50  50 100 NE17G26   29.80F FOG
MARYSVILLE     LGT RAIN  46  45  93 NE16G23   29.88F
OLATHE IND     CLOUDY    50  48  93 E21G31    29.82F
OLATHE EXE     CLOUDY    49  49 100 E15G25    29.83F FOG
SALINA         RAIN      50  47  89 NE23G31   29.77F FOG
TOPEKA BILLARD CLOUDY    51  50  96 E17       29.81F
TOPEKA FORBES  CLOUDY    51  49  92 E20G26    29.79F
$$




USA.gov is the U.S. government's official web portal to all federal, state and local government web resources and services.